Location: Potomac Astrometric Observatory
(39.0475°N, 77.2064°W)
Time: 22:41:55
(UTC-04:00)

Envisat - Pass Details

Date: 22 March 2019
Orbit: 764 x 766 km, 98.2° (Epoch: 19 April)

Event Time Altitude Azimuth Distance (km) Brightness Sun altitude
Rises 21:17:34 0° 219° (SW) 3,220 6.5 -22.6°
Reaches altitude 10° 21:21:49 10° 254° (WSW) 2,301 6.2 -23.4°
Maximum altitude 21:23:15 11° 271° (W) 2,227 6.3 -23.6°
Drops below altitude 10° 21:24:40 10° 287° (WNW) 2,306 6.6 -23.9°
Sets 21:28:58 0° 322° (NW) 3,239 7.2 -24.7°
